This is the latest recevied weather packets stored in our database for station/object IK2ILW-6. If no packets are shown the sender has not sent any weather packets the latest 10 day(s).
| Time | Temp. | Humidity | Pressure | Rain* | Wind** | Luminosity | Snow |
|---|---|---|---|---|---|---|---|
| 1778229991 | 5.56° C | 90% | 1017.1 hPa | 0 mm | - | 355 W/m² | - |
| 1778229696 | 5.56° C | 91% | 1017.1 hPa | 0 mm | - | 199 W/m² | - |
| 1778229401 | 6.11° C | 90% | 1017.1 hPa | 0 mm | - | 190 W/m² | - |
| 1778229085 | 5.56° C | 89% | 1017 hPa | 0 mm | - | 814 W/m² | - |
| 1778228792 | 5.56° C | 88% | 1017 hPa | 0 mm | - | 281 W/m² | - |
| 1778228497 | 5.56° C | 89% | 1016.9 hPa | 0 mm | - | 174 W/m² | - |
| 1778228186 | 5.56° C | 89% | 1016.9 hPa | 0 mm | - | 183 W/m² | - |
| 1778227889 | 5.56° C | 91% | 1016.9 hPa | 0 mm | - | 274 W/m² | - |
| 1778227593 | 5° C | 90% | 1016.9 hPa | 0 mm | - | 810 W/m² | - |
| 1778227296 | 5° C | 92% | 1016.9 hPa | 0 mm | - | 360 W/m² | - |
| 1778227000 | 5° C | 89% | 1016.9 hPa | 0 mm | - | 142 W/m² | - |
| 1778226684 | 5° C | 88% | 1017 hPa | 0 mm | - | 216 W/m² | - |
| 1778226389 | 5.56° C | 86% | 1016.8 hPa | 0 mm | - | 218 W/m² | - |
| 1778226171 | 6.67° C | 88% | 1016.9 hPa | 0 mm | - | 244 W/m² | - |
| 1778225798 | 6.67° C | 86% | 1016.9 hPa | 1.02 mm | - | 571 W/m² | - |
| 1778225484 | 6.67° C | 82% | 1016.8 hPa | 1.02 mm | - | 555 W/m² | - |
| 1778225188 | 6.67° C | 79% | 1016.8 hPa | 1.02 mm | - | 570 W/m² | - |
| 1778224895 | 6.67° C | 76% | 1016.7 hPa | 1.02 mm | - | 550 W/m² | - |
| 1778224599 | 7.22° C | 76% | 1016.7 hPa | 1.02 mm | - | 568 W/m² | - |
| 1778224302 | 7.22° C | 75% | 1016.6 hPa | 1.02 mm | - | 512 W/m² | - |
| 1778223987 | 6.67° C | 74% | 1016.6 hPa | 1.02 mm | - | 482 W/m² | - |
| 1778223691 | 6.67° C | 73% | 1016.6 hPa | 1.02 mm | - | 469 W/m² | - |
| 1778223395 | 6.67° C | 76% | 1016.5 hPa | 1.02 mm | - | 468 W/m² | - |
| 1778223099 | 6.11° C | 73% | 1016.5 hPa | 1.02 mm | - | 439 W/m² | - |
| 1778222783 | 6.11° C | 72% | 1016.5 hPa | 1.02 mm | - | 441 W/m² | - |
* Rain latest hour (hover to see other rain measurements)
** Current wind speed in m/s (hover to see current wind gust speed)